[[{"header":{"parameterUnit":"m.s-1","parameterCategory":1,"la1":30.2991,"la2":30.254,"lo1":-89.0895,"lo2":-89.0444,"dy":0.0017,"dx":0.0017,"nx":28,"ny":28,"refTime":"2024-11-26T09:00:00:Z","depth":0,"parameterNumber":2,"parameterNumberName":"U-component_of_WINDS"},"data":[0,0,0,0,0,0,0,0,0,0,0,0,0,0,0,0,0,0,0,0,0,0,0,0,0,0,0,0,0,0,0,0,0,0,0,0,0,0,0,0,0,0,0,0,0,0,0,0,0,0,0,0,0,0,0,0,0,0,-1.0875,-1.0876,0,-1.0964,-1.0965,-1.0966,-1.0975,-1.0974,-1.0973,-1.0972,-1.1069,-1.1072,-1.1076,0,0,0,0,0,0,0,0,0,0,0,0,0,-1.0717,-1.072,-1.0874,-1.0876,-1.0877,-1.0964,-1.0965,-1.0966,-1.0975,-1.0974,-1.0973,-1.0972,-1.1068,-1.1072,-1.1076,0,0,0,0,0,0,0,0,0,0,0,0,0,-1.0794,-1.0721,-1.0874,-1.0892,-1.0894,-1.0963,-1.0965,-1.0966,-1.0975,-1.0974,-1.0972,-1.0971,-1.1067,-1.1072,-1.1077,-1.1137,0,0,-1.1093,-1.1095,0,0,0,0,0,0,0,0,-1.0789,-1.0799,-1.0888,-1.089,-1.0893,-1.0957,-1.0945,-1.1024,-1.0976,-1.0945,-1.0972,-1.097,-1.1033,-1.1041,-1.1061,-1.1141,-1.1145,-1.1093,-1.1096,-1.1098,-1.11,0,0,0,0,0,0,0,-1.0784,-1.0796,-1.091,-1.0889,-1.0893,-1.0896,-1.0906,-1.096,-1.0996,-1.0947,-1.0948,-1.0958,-1.1034,-1.1056,-1.1063,-1.1147,-1.1093,-1.1097,-1.1101,-1.1103,-1.128,-1.1282,0,0,0,0,0,0,-1.0775,-1.0791,-1.0907,-1.0913,-1.0837,-1.09,-1.0911,-1.0938,-1.0995,-1.1003,-1.0959,-1.0958,-1.1048,-1.1057,-1.1067,-1.114,-1.1098,-1.1103,-1.1106,-1.1279,-1.1281,-1.1282,0,0,0,0,0,0,-1.0771,-1.0785,-1.0904,-1.0852,-1.0868,-1.0905,-1.0935,-1.094,-1.0962,-1.1004,-1.1011,-1.0974,-1.1047,-1.1059,-1.1119,-1.1144,-1.1105,-1.111,-1.1277,-1.1279,-1.1281,-1.1288,0,0,0,0,0,0,-1.0767,-1.0784,-1.0806,-1.0852,-1.087,-1.0953,-1.0936,-1.0943,-1.097,-1.097,-1.102,-1.1027,-1.1047,-1.1111,-1.1124,-1.115,-1.1114,-1.1275,-1.1278,-1.1281,-1.1286,-1.129,-1.1294,0,0,0,0,0,-1.0761,-1.0805,-1.0807,-1.0821,-1.0898,-1.0954,-1.0964,-1.0984,-1.0972,-1.0995,-1.1022,-1.1026,-1.1139,-1.1117,-1.1132,-1.116,-1.1273,-1.1277,-1.1281,-1.1284,-1.1289,-1.1294,0,0,0,0,0,0,-1.0763,-1.0812,-1.0814,-1.0875,-1.091,-1.0955,-1.0985,-1.099,-1.1031,-1.1029,-1.1054,-1.1065,-1.1123,-1.1148,-1.1122,-1.1221,-1.1205,-1.1212,-1.1202,-1.1208,-1.1212,-1.1205,-1.1119,0,0,0,0,0,-1.077,-1.0809,-1.0851,-1.09,-1.0918,-1.0948,-1.0973,-1.0985,-1.1024,-1.1039,-1.1071,-1.1109,-1.1153,-1.1182,-1.1225,-1.1289,-1.13,-1.1316,-1.132,-1.1323,-1.1329,-1.1364,-1.1371,-1.1294,-1.1294,-1.1294,0,0,-1.0786,-1.0817,-1.0841,-1.0901,-1.093,-1.0972,-1.0961,-1.1006,-1.1037,-1.1047,-1.1104,-1.1128,-1.1173,-1.1234,-1.1263,-1.1257,-1.1353,-1.1328,-1.133,-1.1334,-1.1369,-1.1376,-1.1382,-1.1297,-1.1296,-1.1296,0,0,-1.0836,-1.0863,-1.0907,-1.0936,-1.0978,-1.0998,-1.1009,-1.1054,-1.1069,-1.1127,-1.1134,-1.1173,-1.1249,-1.128,-1.1306,-1.1366,-1.1371,-1.1379,-1.1402,-1.1436,-1.1442,-1.1448,-1.1469,-1.1476,-1.1385,-1.1385,-1.1385,0,-1.0851,-1.0912,-1.093,-1.0974,-1.1,-1.1008,-1.1053,-1.1081,-1.1136,-1.1155,-1.1146,-1.124,-1.1271,-1.134,-1.1354,-1.1375,-1.1388,-1.1374,-1.1439,-1.1445,-1.1451,-1.1471,-1.1479,-1.1386,-1.1386,-1.1386,-1.1385,0,-1.0928,-1.097,-1.1001,-1.1051,-1.1081,-1.1126,-1.1152,-1.118,-1.1189,-1.1211,-1.1269,-1.1306,-1.1356,-1.1373,-1.1384,-1.1443,-1.1438,-1.1434,-1.1419,-1.1458,-1.1478,-1.1486,-1.1387,-1.1386,-1.1386,-1.1386,0,0,-1.0982,-1.1041,-1.1052,-1.1075,-1.1122,-1.1156,-1.1201,-1.1248,-1.1272,-1.131,-1.1349,-1.1411,-1.1408,-1.1437,-1.1451,-1.1481,-1.1526,-1.1474,-1.1475,-1.1482,-1.1593,-1.1596,-1.1605,-1.1529,-1.153,-1.1532,-1.1589,0,-1.1037,-1.1115,-1.1132,-1.12,-1.124,-1.1248,-1.1287,-1.1321,-1.1342,-1.138,-1.1404,-1.1448,-1.144,-1.1457,-1.1487,-1.1514,-1.1548,-1.151,-1.1566,-1.1568,-1.1554,-1.1615,-1.1618,-1.1671,-1.1597,-1.1599,-1.16,0,-1.1112,-1.1149,-1.122,-1.1261,-1.1278,-1.1313,-1.1357,-1.1393,-1.1432,-1.1445,-1.1477,-1.1487,-1.1535,-1.1517,-1.1584,-1.1558,-1.1582,-1.1598,-1.1601,-1.1607,-1.1586,-1.1623,-1.1688,-1.1696,-1.1612,-1.1611,-1.161,0,-1.1144,-1.1212,-1.1263,-1.1283,-1.1332,-1.1356,-1.1378,-1.1415,-1.1442,-1.1481,-1.1499,-1.1544,-1.1569,-1.1604,-1.1627,-1.1611,-1.1692,-1.1676,-1.1705,-1.1704,-1.1722,-1.172,-1.1792,-1.1737,-1.1737,-1.1737,-1.1737,0,-1.1204,-1.1247,-1.1278,-1.131,-1.1358,-1.1378,-1.1427,-1.1449,-1.1482,-1.1519,-1.1529,-1.1564,-1.1592,-1.1631,-1.1649,-1.1701,-1.1713,-1.1725,-1.173,-1.1725,-1.1723,-1.1741,-1.1738,-1.1739,-1.1739,-1.1738,-1.1738,0,-1.1248,-1.127,-1.1327,-1.1368,-1.1379,-1.1413,-1.145,-1.1481,-1.1501,-1.1548,-1.156,-1.1593,-1.1639,-1.1665,-1.1724,-1.1736,-1.1795,-1.1797,-1.1781,-1.1783,-1.181,-1.1807,-1.1896,-1.1908,-1.1845,-1.1846,-1.1846,0,-1.1285,-1.1318,-1.1362,-1.1386,-1.1408,-1.1447,-1.1474,-1.1495,-1.1523,-1.1569,-1.1595,-1.1641,-1.1679,-1.1753,-1.1783,-1.1828,-1.1832,-1.1859,-1.1839,-1.1832,-1.1832,-1.1829,-1.1833,-1.1863,-1.1864,-1.1864,-1.1865,0,-1.1347,-1.1356,-1.1393,-1.1434,-1.1465,-1.1499,-1.1533,-1.1553,-1.1579,-1.161,-1.1656,-1.1686,-1.1744,-1.179,-1.1837,-1.1862,-1.1868,-1.1871,-1.188,-1.1875,-1.1864,-1.187,-1.1791,-1.1869,-1.1868,-1.1868,-1.1868,-1.1868,-1.1389,-1.1418,-1.1453,-1.1494,-1.1521,-1.1552,-1.1583,-1.1606,-1.1645,-1.1693,-1.1703,-1.1752,-1.179,-1.1853,-1.1878,-1.1918,-1.1913,-1.1926,-1.1929,-1.1932,-1.1933,-1.1857,-1.1926,-1.1926,-1.1926,-1.1926,-1.1926,0,-1.1451,-1.1474,-1.1511,-1.1557,-1.1589,-1.159,-1.1627,-1.1655,-1.1696,-1.173,-1.1767,-1.182,-1.1864,-1.1897,-1.1942,-1.1968,-1.1972,-1.1979,-1.1977,-1.1983,-1.1935,-1.1922,-1.1975,-1.1975,-1.1975,-1.1975,-1.1975,-1.1975,-1.1488,-1.1537,-1.155,-1.1614,-1.1636,-1.1682,-1.1703,-1.1732,-1.1759,-1.1817,-1.1853,-1.1873,-1.1907,-1.1955,-1.1996,-1.2004,-1.2021,-1.2028,-1.2037,-1.1991,-1.1986,-1.1981,-1.197,-1.2031,-1.2031,-1.2081,-1.2082,-1.2082]},{"header":{"parameterUnit":"m.s-1","parameterCategory":1,"la1":30.2991,"la2":30.254,"lo1":-89.0895,"lo2":-89.0444,"dy":0.0017,"dx":0.0017,"nx":28,"ny":28,"refTime":"2024-11-26T09:00:00:Z","depth":0,"parameterNumber":3,"parameterNumberName":"V-component_of_WINDS"},"data":[0,0,0,0,0,0,0,0,0,0,0,0,0,0,0,0,0,0,0,0,0,0,0,0,0,0,0,0,0,0,0,0,0,0,0,0,0,0,0,0,0,0,0,0,0,0,0,0,0,0,0,0,0,0,0,0,0,0,-1.775,-1.775,0,-1.7762,-1.7762,-1.7762,-1.7745,-1.7744,-1.7743,-1.7743,-1.7753,-1.7754,-1.7755,0,0,0,0,0,0,0,0,0,0,0,0,0,-1.7712,-1.7713,-1.775,-1.775,-1.7751,-1.7762,-1.7762,-1.7762,-1.7745,-1.7744,-1.7743,-1.7743,-1.7753,-1.7754,-1.7755,0,0,0,0,0,0,0,0,0,0,0,0,0,-1.7727,-1.7713,-1.775,-1.7743,-1.7743,-1.7762,-1.7762,-1.7762,-1.7745,-1.7744,-1.7743,-1.7742,-1.7753,-1.7754,-1.7755,-1.778,0,0,-1.7759,-1.7759,0,0,0,0,0,0,0,0,-1.7726,-1.7728,-1.7744,-1.7744,-1.7743,-1.7751,-1.7752,-1.7768,-1.7745,-1.7744,-1.7743,-1.7742,-1.7753,-1.7754,-1.7758,-1.7781,-1.7781,-1.7759,-1.776,-1.776,-1.7761,0,0,0,0,0,0,0,-1.7725,-1.7727,-1.7755,-1.7745,-1.7744,-1.7739,-1.774,-1.7755,-1.7753,-1.7744,-1.7743,-1.7745,-1.7753,-1.7757,-1.7758,-1.7782,-1.7759,-1.776,-1.7761,-1.7761,-1.7824,-1.7825,0,0,0,0,0,0,-1.7725,-1.7727,-1.7754,-1.7755,-1.7732,-1.7741,-1.7742,-1.7749,-1.7753,-1.7753,-1.7745,-1.7744,-1.7755,-1.7757,-1.7759,-1.7788,-1.776,-1.7761,-1.7762,-1.7824,-1.7825,-1.7826,0,0,0,0,0,0,-1.7724,-1.7728,-1.7754,-1.7741,-1.7744,-1.7742,-1.7751,-1.775,-1.7754,-1.7754,-1.7754,-1.775,-1.7755,-1.7757,-1.7775,-1.7788,-1.7762,-1.7763,-1.7822,-1.7824,-1.7825,-1.7846,0,0,0,0,0,0,-1.7723,-1.7727,-1.7737,-1.7741,-1.7744,-1.7771,-1.7752,-1.7751,-1.7757,-1.7755,-1.7759,-1.7758,-1.7754,-1.7773,-1.7776,-1.7789,-1.7764,-1.7821,-1.7823,-1.7825,-1.7845,-1.7848,-1.7852,0,0,0,0,0,-1.7722,-1.7743,-1.7738,-1.7741,-1.7757,-1.7771,-1.7773,-1.7768,-1.7758,-1.7768,-1.7767,-1.7758,-1.7786,-1.7775,-1.7778,-1.7792,-1.782,-1.7823,-1.7825,-1.7843,-1.7848,-1.7852,0,0,0,0,0,0,-1.7741,-1.7743,-1.7738,-1.7761,-1.7766,-1.7768,-1.7781,-1.7774,-1.7782,-1.7779,-1.7773,-1.7774,-1.7793,-1.7794,-1.7782,-1.7816,-1.7801,-1.7804,-1.7814,-1.7819,-1.7822,-1.7821,-1.7765,0,0,0,0,0,-1.7748,-1.776,-1.7761,-1.7781,-1.7784,-1.7782,-1.7788,-1.7784,-1.7789,-1.7791,-1.7792,-1.7797,-1.7806,-1.7813,-1.7822,-1.7845,-1.7845,-1.7856,-1.7859,-1.7862,-1.7864,-1.7876,-1.788,-1.7833,-1.7833,-1.7833,0,0,-1.7762,-1.7765,-1.7773,-1.7785,-1.7788,-1.78,-1.7784,-1.7797,-1.7806,-1.7793,-1.7809,-1.7811,-1.7815,-1.7836,-1.7845,-1.7838,-1.7878,-1.7865,-1.7867,-1.7868,-1.7878,-1.7883,-1.7887,-1.7834,-1.7834,-1.7834,0,0,-1.7793,-1.7797,-1.7814,-1.7818,-1.7823,-1.7822,-1.7826,-1.7829,-1.7829,-1.7846,-1.7837,-1.7847,-1.7864,-1.7867,-1.7871,-1.7904,-1.7895,-1.7907,-1.7925,-1.7936,-1.794,-1.7943,-1.7954,-1.7958,-1.7909,-1.791,-1.791,0,-1.781,-1.7828,-1.7823,-1.7837,-1.7842,-1.7832,-1.7848,-1.7852,-1.786,-1.7863,-1.7855,-1.7876,-1.7879,-1.7899,-1.7907,-1.7911,-1.7915,-1.7906,-1.794,-1.7943,-1.7946,-1.7956,-1.796,-1.7911,-1.7911,-1.7911,-1.791,0,-1.7847,-1.786,-1.7872,-1.7881,-1.7887,-1.7903,-1.7899,-1.7907,-1.7902,-1.7901,-1.7918,-1.7921,-1.793,-1.7935,-1.7931,-1.7955,-1.795,-1.7941,-1.7926,-1.7952,-1.7961,-1.7965,-1.7913,-1.7912,-1.7912,-1.7912,0,0,-1.789,-1.7896,-1.79,-1.7903,-1.7909,-1.7918,-1.7932,-1.7941,-1.7947,-1.7953,-1.7964,-1.7979,-1.7971,-1.7975,-1.7971,-1.7981,-1.8006,-1.7971,-1.7971,-1.7976,-1.8031,-1.8037,-1.8041,-1.8001,-1.8001,-1.8002,-1.803,0,-1.7921,-1.7945,-1.7941,-1.7965,-1.7976,-1.7966,-1.7978,-1.7982,-1.7982,-1.7991,-1.799,-1.8,-1.7989,-1.7992,-1.8001,-1.8001,-1.8016,-1.7999,-1.801,-1.801,-1.8007,-1.8046,-1.8052,-1.8079,-1.8034,-1.8034,-1.8035,0,-1.7959,-1.7967,-1.7991,-1.7994,-1.7999,-1.801,-1.8017,-1.8026,-1.8031,-1.8029,-1.8035,-1.8029,-1.8042,-1.8028,-1.8046,-1.8034,-1.8038,-1.8039,-1.804,-1.8039,-1.8023,-1.8046,-1.8087,-1.8091,-1.8041,-1.804,-1.804,0,-1.7986,-1.8003,-1.8019,-1.8023,-1.8027,-1.8035,-1.8037,-1.804,-1.8046,-1.8052,-1.8055,-1.8064,-1.8068,-1.8074,-1.807,-1.806,-1.8088,-1.8074,-1.8087,-1.8087,-1.8092,-1.8091,-1.8134,-1.8097,-1.8097,-1.8097,-1.8097,0,-1.802,-1.8035,-1.8031,-1.8041,-1.8058,-1.8053,-1.807,-1.807,-1.8074,-1.8083,-1.8075,-1.8084,-1.8079,-1.8088,-1.8085,-1.81,-1.8102,-1.8101,-1.8099,-1.8101,-1.8101,-1.8102,-1.81,-1.8098,-1.8098,-1.8098,-1.8097,0,-1.8053,-1.8051,-1.8068,-1.8071,-1.8072,-1.8084,-1.8085,-1.8094,-1.8094,-1.8106,-1.8108,-1.8107,-1.8116,-1.8113,-1.8124,-1.8122,-1.814,-1.8137,-1.8138,-1.8137,-1.815,-1.8148,-1.8193,-1.8199,-1.816,-1.816,-1.8161,0,-1.8073,-1.8085,-1.8089,-1.8094,-1.8097,-1.8107,-1.8112,-1.8108,-1.8114,-1.812,-1.8128,-1.8137,-1.8144,-1.8159,-1.8159,-1.8166,-1.8163,-1.8178,-1.8164,-1.8164,-1.8161,-1.816,-1.8161,-1.8181,-1.8181,-1.8181,-1.8182,0,-1.811,-1.8109,-1.8117,-1.8125,-1.8132,-1.8138,-1.8143,-1.8148,-1.8144,-1.8151,-1.8161,-1.8166,-1.8177,-1.8185,-1.8192,-1.8194,-1.8187,-1.8187,-1.819,-1.819,-1.819,-1.8189,-1.8145,-1.8185,-1.8185,-1.8185,-1.8184,-1.8184,-1.8137,-1.8146,-1.815,-1.8159,-1.8163,-1.8168,-1.8176,-1.8176,-1.8184,-1.8192,-1.819,-1.82,-1.8204,-1.8213,-1.8215,-1.8223,-1.8217,-1.8222,-1.8223,-1.8224,-1.8225,-1.819,-1.8225,-1.8225,-1.8224,-1.8224,-1.8224,0,-1.8172,-1.8174,-1.8182,-1.819,-1.8197,-1.8191,-1.8196,-1.8202,-1.8212,-1.8216,-1.8223,-1.8234,-1.8242,-1.8242,-1.825,-1.8256,-1.8253,-1.8258,-1.8257,-1.8257,-1.8231,-1.8226,-1.826,-1.826,-1.826,-1.826,-1.826,-1.826,-1.8191,-1.8206,-1.8205,-1.8221,-1.8223,-1.8233,-1.8237,-1.8241,-1.8244,-1.8257,-1.8264,-1.8264,-1.8266,-1.8274,-1.8281,-1.8281,-1.8283,-1.8289,-1.8288,-1.8263,-1.8259,-1.8256,-1.8252,-1.829,-1.829,-1.8313,-1.8313,-1.8314]}]]